STARLINK-34323, 64219

Orbit data source: Space-Track

STARLINK-34323, 64219 is a payload satellite owned by SpaceX/Seattle (US) in LEO that was launched on Thu, 05 Jun 2025 UTC via an FALCON 9 launch vehicle from the Air Force Western Test Range (AFWTR). Payload-class satellites include a variety of spacecraft equipped with specific instruments for various scientific and technological missions. These include communications satellites like Starlink; space stations such as the ISS; scientific satellites like the Hubble; Earth observation satellites from companies like Planet Labs, Umbra, and HawkEye 360; GPS; miniature CubeSats for education and research; and military/defense satellites.

Loading next visibility...
Identifier
64219, 2025-117S
Orbit
LEO
Last TLE update
8 hours ago
Origin
Manufacturer
SpaceX/Seattle
Mission
Operational spacecraft
Bus & Motor
STARLINK V2MO, Unknown motor
Mass
575 kg wet, ~530 kg dry
Launch date (UTC)
2025-06-05 (2 weeks ago)
Launch vehicle
FALCON 9
Launch site
Air Force Western Test Range (AFWTR)
Object type
Payload
Rocket body
Debris
Shape & HBR
Unknown
Radar Cross Section
Large (>1 m²)

Expand to show TLE details & history

TLE from 8 hours ago
0 STARLINK-34323
1 64219U 25117S   25169.91668981 -.01495946  00000-0 -14275-1 0  9999
2 64219  53.1598 190.4519 0000890  81.3913 200.6609 15.68865399  4115
Epoch: 2025-06-18T22:00Z
TLE epoch observation values (Epoch: 2025-06-18T22:00:01.999Z)
Latitude
-51.67084°
Longitude
-117.39744°
Altitude
380.597 km
Speed
7.681 km/s
True Right ascension
08h 00m 00s
True Declination
-51° 29' 39"
Sunlit
Object was in daylight at epoch
Visualization orbit readout
Latitude
39.11503°
Longitude
-11.3456°
Altitude
368.213 km
Speed
7.694 km/s
Apparent Right ascension
10h 32m 29s
Apparent Declination
3° 35' 38"
Sunlit
Object is in daylight
Visualization observer readout
Local Sidereal Time
17:02:23
Azimuth
277.563° WNW
Elevation
-3.403°
Doppler factor
1
Orbital elements
Apogee altitude
363.005 km
Perigee altitude
361.805 km
Semi-major axis
6,740.542 km
Eccentricity
0.00009
Inclination
53.1598°
RAAN
190.4519°
Arg. of periapsis
81.3913°
True anomaly
Unknown
Mean anomaly
200.6609°
Eccentric anomaly
Unknown
Mean motion
3.92194 °/min
Orbital period
91.79 mins
BSTAR
-0.014275
Loading maneuver chart data...
Loading SW <> Apogee altitude chart data...
Loading historical data...
Loading historical data...
Loading historical data...
Loading historical data...
Loading historical data...
Loading historical data...
Loading historical data...

STARLINK-34323 Visibility forecast

Observer location: undefined°, undefined°

Span
Click to sort rows by Start time (UTC) header in descending order
Start Az.
Max El. time (UTC)
Max El. Az.
Max El.
End time (UTC)
End Az.
4 mins2025-06-19 11:04:56.630Z308.736° NW2025-06-19 11:06:56.630Z138.213° SSE42.169°2025-06-19 11:08:56.630Z132.298° SE
4 mins2025-06-20 03:35:56.630Z206.603° SW2025-06-20 03:37:56.630Z129.407° SE37.605°2025-06-20 03:39:56.630Z64.363° ENE
|